Location: ??????
(55.7522°N, 37.6156°E)
Time: 18:09:24
(UTC+00:00)

NOSS 3-4 (A) - Pass Details

Date: 14 June 2025
Orbit: 764 x 1447 km, 63.4° (Epoch: 09 July)

Event Time Altitude Azimuth Distance (km) Brightness Sun altitude
Rises 19:08:59 0° 224° (SW) 3,247 6.1 -5.5°
Reaches altitude 10° 19:11:16 10° 223° (SW) 2,355 5.4 -5.6°
Maximum altitude 19:16:37 79° 138° (SE) 872 3.2 -6.0°
Drops below altitude 10° 19:22:45 10° 53° (NE) 2,682 5.9 -6.4°
Sets 19:25:31 0° 52° (NE) 3,734 6.7 -6.6°
